| time (UTC) | temp F | wind direction | speed knots | gust knots | rain 1hr in | rain 24hr in | rain mn in | humidity % | barometer mb |
| 20260906231521 | 65 | 360 | 1.7 | 7.0 | 0.00 | 0.02 | 0.02 | 74 | 1009.6 |
| 20260906230022 | 65 | 360 | 2.6 | 7.8 | 0.00 | 0.02 | 0.02 | 75 | 1009.7 |
| 20260906224518 | 64 | 360 | 2.6 | 7.8 | 0.00 | 0.02 | 0.02 | 76 | 1009.8 |
| 20260906223026 | 64 | 360 | 4.3 | 8.7 | 0.00 | 0.02 | 0.02 | 77 | 1010.0 |
| 20260906221517 | 64 | 360 | 5.2 | 8.7 | 0.00 | 0.02 | 0.02 | 78 | 1010.2 |
| 20260906220028 | 64 | 360 | 2.6 | 7.0 | 0.00 | 0.02 | 0.02 | 78 | 1010.2 |
| 20260906214526 | 64 | 360 | 3.5 | 7.8 | 0.00 | 0.02 | 0.02 | 79 | 1010.2 |
| 20260906213015 | 63 | 360 | 4.3 | 9.6 | 0.00 | 0.02 | 0.02 | 79 | 1010.1 |
| 20260906211515 | 62 | 360 | 3.5 | 12.2 | 0.00 | 0.02 | 0.02 | 81 | 1010.1 |
| 20260906210016 | 63 | 360 | 6.1 | 11.3 | 0.00 | 0.02 | 0.02 | 79 | 1010.0 |
| 20260906204512 | 65 | 360 | 1.7 | 5.2 | 0.00 | 0.02 | 0.02 | 74 | 1010.1 |
| 20260906203011 | 65 | 360 | 1.7 | 4.3 | 0.00 | 0.02 | 0.02 | 74 | 1010.2 |
| 20260906201508 | 64 | 360 | 0.9 | 5.2 | 0.00 | 0.02 | 0.02 | 74 | 1010.3 |
| 20260906200008 | 64 | 360 | 2.6 | 5.2 | 0.00 | 0.02 | 0.02 | 74 | 1010.4 |
| 20260906194505 | 63 | 360 | 0.9 | 5.2 | 0.00 | 0.02 | 0.02 | 76 | 1010.6 |
| 20260906193002 | 63 | 360 | 0.0 | 3.5 | 0.00 | 0.02 | 0.02 | 78 | 1010.8 |
| 20260906191559 | 62 | 360 | 1.7 | 3.5 | 0.00 | 0.02 | 0.02 | 78 | 1010.9 |
| 20260906190138 | 62 | 360 | 2.6 | 4.3 | 0.00 | 0.02 | 0.02 | 79 | 1011.2 |
| 20260906184555 | 61 | 360 | 0.9 | 7.8 | 0.00 | 0.02 | 0.02 | 81 | 1011.3 |
| 20260906183059 | 61 | 360 | 3.5 | 8.7 | 0.00 | 0.02 | 0.02 | 81 | 1011.5 |
| 20260906181553 | 61 | 360 | 6.1 | 10.4 | 0.00 | 0.02 | 0.02 | 82 | 1011.4 |
| 20260906180049 | 60 | 360 | 5.2 | 8.7 | 0.00 | 0.02 | 0.02 | 82 | 1011.7 |
| 20260906174547 | 59 | 360 | 6.1 | 12.2 | 0.00 | 0.02 | 0.02 | 83 | 1011.7 |
| 20260906173048 | 59 | 360 | 4.3 | 7.8 | 0.00 | 0.02 | 0.02 | 81 | 1012.1 |
| 20260906171544 | 58 | 360 | 2.6 | 7.0 | 0.00 | 0.02 | 0.02 | 85 | 1012.5 |
| 20260906170039 | 57 | 360 | 5.2 | 10.4 | 0.00 | 0.02 | 0.02 | 86 | 1012.7 |
| 20260906164538 | 56 | 360 | 5.2 | 10.4 | 0.00 | 0.02 | 0.02 | 87 | 1013.0 |
| 20260906163037 | 56 | 360 | 7.8 | 11.3 | 0.00 | 0.02 | 0.02 | 88 | 1013.1 |
| 20260906161536 | 55 | 360 | 7.0 | 11.3 | 0.00 | 0.02 | 0.02 | 89 | 1013.0 |
| 20260906160036 | 55 | 360 | 7.8 | 12.2 | 0.00 | 0.02 | 0.02 | 89 | 1013.2 |
| 20260906154538 | 55 | 360 | 7.8 | 15.6 | 0.00 | 0.02 | 0.02 | 90 | 1013.2 |
| 20260906153037 | 55 | 360 | 9.6 | 13.9 | 0.00 | 0.02 | 0.02 | 91 | 1013.1 |
| 20260906151533 | 56 | 360 | 6.1 | 11.3 | 0.01 | 0.02 | 0.02 | 92 | 1013.4 |
| 20260906150034 | 56 | 360 | 5.2 | 9.6 | 0.02 | 0.02 | 0.02 | 93 | 1013.5 |
| 20260906144528 | 57 | 360 | 4.3 | 9.6 | 0.02 | 0.02 | 0.02 | 93 | 1013.5 |
| 20260906143031 | 57 | 360 | 3.5 | 8.7 | 0.02 | 0.02 | 0.02 | 92 | 1013.6 |
| 20260906141525 | 57 | 360 | 2.6 | 5.2 | 0.01 | 0.01 | 0.01 | 92 | 1013.7 |
| 20260906140040 | 57 | 360 | 0.9 | 3.5 | 0.00 | 0.00 | 0.00 | 91 | 1013.6 |
| 20260906134525 | 57 | 360 | 0.9 | 2.6 | 0.00 | 0.00 | 0.00 | 90 | 1013.7 |
| 20260906133024 | 57 | 360 | 0.0 | 0.9 | 0.00 | 0.00 | 0.00 | 89 | 1013.7 |
| 20260906131532 | 58 | 360 | 0.0 | 0.9 | 0.00 | 0.00 | 0.00 | 87 | 1013.7 |
| 20260906130022 | 58 | 360 | 0.0 | 1.7 | 0.00 | 0.00 | 0.00 | 85 | 1013.8 |
| 20260906124521 | 58 | 360 | 0.0 | 2.6 | 0.00 | 0.00 | 0.00 | 83 | 1013.5 |
| 20260906123020 | 58 | 360 | 0.0 | 1.7 | 0.00 | 0.00 | 0.00 | 83 | 1013.6 |
| 20260906121520 | 59 | 360 | 0.0 | 2.6 | 0.00 | 0.00 | 0.00 | 83 | 1013.5 |
| 20260906120023 | 59 | 360 | 0.0 | 3.5 | 0.00 | 0.00 | 0.00 | 82 | 1013.6 |
| 20260906114526 | 59 | 360 | 4.3 | 8.7 | 0.00 | 0.00 | 0.00 | 82 | 1013.0 |
| 20260906113019 | 59 | 360 | 5.2 | 8.7 | 0.00 | 0.00 | 0.00 | 82 | 1013.0 |
| 20260906111518 | 59 | 360 | 6.1 | 9.6 | 0.00 | 0.00 | 0.00 | 81 | 1013.1 |
| 20260906110017 | 59 | 360 | 2.6 | 8.7 | 0.00 | 0.00 | 0.00 | 81 | 1013.1 |
| 20260906104518 | 59 | 360 | 3.5 | 13.0 | 0.00 | 0.00 | 0.00 | 80 | 1013.1 |
| 20260906103016 | 59 | 360 | 3.5 | 9.6 | 0.00 | 0.00 | 0.00 | 80 | 1013.2 |
| 20260906101516 | 59 | 360 | 5.2 | 9.6 | 0.00 | 0.00 | 0.00 | 79 | 1013.3 |
| 20260906100014 | 59 | 360 | 3.5 | 7.8 | 0.00 | 0.00 | 0.00 | 79 | 1013.4 |
| 20260906094513 | 59 | 360 | 0.0 | 7.0 | 0.00 | 0.00 | 0.00 | 79 | 1013.4 |
| 20260906093037 | 59 | 360 | 3.5 | 7.8 | 0.00 | 0.00 | 0.00 | 80 | 1013.2 |
| 20260906091512 | 59 | 360 | 2.6 | 7.8 | 0.00 | 0.00 | 0.00 | 80 | 1013.1 |
| 20260906090015 | 59 | 360 | 3.5 | 8.7 | 0.00 | 0.00 | 0.00 | 80 | 1013.2 |
| 20260906084511 | 58 | 360 | 0.0 | 2.6 | 0.00 | 0.00 | 0.00 | 81 | 1013.4 |
| 20260906083011 | 58 | 360 | 0.0 | 4.3 | 0.00 | 0.00 | 0.00 | 81 | 1013.5 |
| 20260906081506 | 58 | 360 | 0.9 | 4.3 | 0.00 | 0.00 | 0.00 | 80 | 1013.7 |
| 20260906080004 | 58 | 360 | 0.0 | 4.3 | 0.00 | 0.00 | 0.00 | 80 | 1014.1 |
| 20260906074504 | 58 | 360 | 0.0 | 1.7 | 0.00 | 0.00 | 0.00 | 80 | 1014.4 |
| 20260906073059 | 58 | 360 | 0.0 | 2.6 | 0.00 | 0.00 | 0.00 | 81 | 1014.6 |
| 20260906071557 | 57 | 360 | 0.0 | 1.7 | 0.00 | 0.00 | 0.00 | 83 | 1014.8 |
| 20260906070056 | 57 | 294 | 0.9 | 3.5 | 0.00 | 0.00 | 0.00 | 83 | 1014.8 |
| 20260906064556 | 56 | 292 | 1.7 | 7.0 | 0.00 | 0.00 | 0.00 | 82 | 1014.9 |
| 20260906063056 | 57 | 360 | 4.3 | 8.7 | 0.00 | 0.00 | 0.00 | 82 | 1014.7 |
| 20260906061601 | 57 | 360 | 5.2 | 13.9 | 0.00 | 0.00 | 0.00 | 81 | 1014.8 |
| 20260906060049 | 57 | 360 | 9.6 | 13.0 | 0.00 | 0.00 | 0.00 | 80 | 1014.9 |
| 20260906054549 | 58 | 360 | 7.8 | 12.2 | 0.00 | 0.00 | 0.00 | 79 | 1014.8 |
| 20260906053104 | 58 | 360 | 7.0 | 10.4 | 0.00 | 0.00 | 0.00 | 74 | 1014.6 |
| 20260906051548 | 59 | 360 | 6.1 | 12.2 | 0.00 | 0.00 | 0.00 | 71 | 1014.5 |
| 20260906050047 | 59 | 360 | 5.2 | 8.7 | 0.00 | 0.00 | 0.00 | 71 | 1014.4 |
| 20260906044547 | 60 | 360 | 3.5 | 7.8 | 0.00 | 0.00 | 0.00 | 69 | 1014.2 |
| 20260906043049 | 60 | 360 | 5.2 | 13.0 | 0.00 | 0.00 | 0.00 | 67 | 1014.1 |
| 20260906041553 | 60 | 360 | 3.5 | 7.8 | 0.00 | 0.00 | 0.00 | 67 | 1014.1 |
| 20260906040046 | 61 | 360 | 5.2 | 9.6 | 0.00 | 0.00 | 0.00 | 65 | 1014.3 |
| 20260906034546 | 62 | 360 | 11.3 | 19.1 | 0.00 | 0.00 | 0.00 | 64 | 1013.0 |
| 20260906033047 | 63 | 360 | 7.0 | 17.4 | 0.00 | 0.00 | 0.00 | 63 | 1013.1 |
| 20260906031544 | 63 | 360 | 2.6 | 13.0 | 0.00 | 0.00 | 0.00 | 61 | 1013.1 |
| 20260906030050 | 65 | 360 | 4.3 | 16.5 | 0.00 | 0.00 | 0.00 | 59 | 1012.8 |
| 20260906024605 | 66 | 360 | 7.0 | 13.9 | 0.00 | 0.00 | 0.00 | 55 | 1012.6 |
| 20260906023047 | 68 | 360 | 8.7 | 15.6 | 0.00 | 0.00 | 0.00 | 50 | 1012.5 |
| 20260906021542 | 70 | 360 | 4.3 | 7.8 | 0.00 | 0.00 | 0.00 | 41 | 1011.8 |
| 20260906020042 | 70 | 360 | 3.5 | 9.6 | 0.00 | 0.00 | 0.00 | 41 | 1011.4 |
| 20260906014549 | 71 | 360 | 6.1 | 9.6 | 0.00 | 0.00 | 0.00 | 39 | 1011.1 |
| 20260906013041 | 73 | 360 | 4.3 | 12.2 | 0.00 | 0.00 | 0.00 | 37 | 1011.3 |
| 20260906011553 | 74 | 360 | 9.6 | 13.0 | 0.00 | 0.00 | 0.00 | 36 | 1011.1 |
| 20260906010100 | 75 | 42 | 7.8 | 13.0 | 0.00 | 0.00 | 0.00 | 35 | 1011.2 |
| 20260906004545 | 76 | 360 | 8.7 | 13.9 | 0.00 | 0.00 | 0.00 | 34 | 1011.3 |
| 20260906003043 | 77 | 59 | 7.8 | 12.2 | 0.00 | 0.00 | 0.00 | 33 | 1011.4 |
| 20260906001556 | 77 | 360 | 8.7 | 13.0 | 0.00 | 0.00 | 0.00 | 33 | 1011.5 |
| 20260906000036 | 77 | 360 | 9.6 | 14.8 | 0.00 | 0.00 | 0.00 | 33 | 1011.7 |
| 20260905234535 | 76 | 36 | 4.3 | 13.9 | 0.00 | 0.00 | 0.00 | 34 | 1011.5 |
| 20260905233033 | 76 | 360 | 6.1 | 10.4 | 0.00 | 0.00 | 0.00 | 34 | 1011.7 |